Weather History for Lamoni, IA

Change the Weather History Date:

Tuesday, February 5, 2013

  Actual Average Record
Temperature  
Mean Temperature 33 °F 26 °F  
Max Temperature 45 °F 35 °F 60 °F (1999)
Min Temperature 21 °F 17 °F -15 °F (1979)
Degree Days  
Heating Degree Days 32 39  
Month to date heating degree days 205 198  
Since 1 July heating degree days 3578 3890  
Cooling Degree Days 0 0  
Month to date cooling degree days 0 0  
Year to date cooling degree days 0 0  
Moisture  
Dew Point 25 °F    
Average Humidity 77    
Maximum Humidity 92    
Minimum Humidity 62    
Precipitation  
Precipitation 0.00 in 0.04 in 0.50 in (1971)
Month to date precipitation 0.05 0.22  
Sea Level Pressure  
Sea Level Pressure 29.98 in    
Wind  
Wind Speed 9 mph (WSW)    
Max Wind Speed 21 mph    
Max Gust Speed 25 mph    
Visibility 10 miles    
Events      
T = Trace of Precipitation, MM = Missing Value Source: NWS Daily Summary

Daily Weather History Graph

Daily Weather History Graph

Search for Another Location

Airport:

Trip Planner

Search our weather history database for the weather conditions in past years. The results will help you decide how hot, cold, wet, or windy it might be!

Date:

Astronomy

Feb. 05, 2013 Rise Set
Actual Time 7:21 AM CST 5:38 PM CST
Civil Twilight 6:52 AM CST 6:07 PM CST
Nautical Twilight 6:19 AM CST 6:39 PM CST
Astronomical Twilight 5:48 AM CST 7:11 PM CST
Moon 3:04 AM CST (2/5) 12:56 PM CST (2/5)
Length of Visible Light 11h 14m
Length of Day
10h 17m
Waning Crescent, 26% of the Moon is Illuminated
Feb 5
Waning Crescent
Feb 10
New
Feb 17
First Quarter
Feb 25
Full
Mar 4
Last Quarter

Hourly Weather History & Observations

Time (CST) Temp. Windchill Dew Point Humidity Pressure Visibility Wind Dir Wind Speed Gust Speed Precip Events Conditions
12:53 AM 21.9 °F 12.5 °F 17.1 °F 82% 29.94 in 10.0 mi South 8.1 mph - N/A   Mostly Cloudy
1:53 AM 21.9 °F 13.4 °F 18.0 °F 85% 29.94 in 10.0 mi SSW 6.9 mph - N/A   Overcast
2:53 AM 23.0 °F 13.1 °F 18.0 °F 81% 29.92 in 10.0 mi SSW 9.2 mph - N/A   Overcast
3:53 AM 23.0 °F 14.7 °F 19.0 °F 85% 29.90 in 9.0 mi SSW 6.9 mph - N/A   Overcast
4:53 AM 23.0 °F 14.7 °F 19.0 °F 85% 29.91 in 9.0 mi SSW 6.9 mph - N/A   Overcast
5:53 AM 21.9 °F 11.0 °F 19.0 °F 89% 29.89 in 8.0 mi SSW 10.4 mph - N/A   Clear
6:53 AM 23.0 °F 13.1 °F 19.9 °F 88% 29.89 in 9.0 mi SW 9.2 mph - N/A   Clear
7:53 AM 24.1 °F 17.0 °F 19.9 °F 84% 29.90 in 7.0 mi SW 5.8 mph - N/A   Clear
8:53 AM 27.0 °F 16.7 °F 23.0 °F 85% 29.91 in 7.0 mi West 11.5 mph - N/A   Clear
9:53 AM 32.0 °F 22.1 °F 25.0 °F 75% 29.92 in 10.0 mi West 13.8 mph - N/A   Unknown
10:53 AM 37.0 °F 28.1 °F 27.0 °F 67% 29.94 in 10.0 mi West 15.0 mph - N/A   Clear
11:53 AM 39.9 °F 31.8 °F 28.9 °F 65% 29.95 in 10.0 mi WNW 15.0 mph - N/A   Clear
12:53 PM 43.0 °F 35.1 °F 30.9 °F 62% 29.96 in 10.0 mi NW 17.3 mph - N/A   Clear
1:53 PM 44.1 °F 36.2 °F 32.0 °F 63% 29.97 in 10.0 mi NW 18.4 mph - N/A   Clear
2:53 PM 45.0 °F 37.9 °F 32.0 °F 60% 29.99 in 10.0 mi NW 16.1 mph - N/A   Clear
3:53 PM 45.0 °F 39.3 °F 32.0 °F 60% 30.01 in 10.0 mi NW 11.5 mph - N/A   Clear
4:53 PM 43.0 °F 37.7 °F 30.0 °F 60% 30.03 in 10.0 mi NW 9.2 mph - N/A   Clear
5:53 PM 39.0 °F 34.0 °F 28.9 °F 67% 30.04 in 10.0 mi NW 6.9 mph - N/A   Clear
6:53 PM 36.0 °F 30.3 °F 28.0 °F 73% 30.07 in 10.0 mi North 6.9 mph - N/A   Clear
7:53 PM 36.0 °F - 27.0 °F 70% 30.10 in 10.0 mi Calm Calm - N/A   Clear
8:53 PM 33.1 °F - 27.0 °F 78% 30.10 in 10.0 mi Calm Calm - N/A   Clear
9:53 PM 32.0 °F 28.7 °F 27.0 °F 82% 30.12 in 10.0 mi South 3.5 mph - N/A   Clear
10:53 PM 35.1 °F 32.2 °F 28.9 °F 78% 30.11 in 10.0 mi SSE 3.5 mph - N/A   Clear
11:53 PM 33.1 °F 30.0 °F 28.9 °F 85% 30.12 in 10.0 mi ENE 3.5 mph - N/A   Clear